Location: Unspecified
(0.0000°N, 0.0000°E)
Time: 00:45:24
(UTC+00:00)

STARLINK-11678 [DTC] - Visible Passes

Search period start: 18 May 2026 00:00
Search period end: 28 May 2026 00:00
Orbit: 355 x 357 km, 43.0° (Epoch: 17 May)

Date Brightness Start Highest point End Pass type
(mag) Time Alt. Az. Time Alt. Az. Time Alt. Az.
19 May ? 04:56:17 10° S 04:58:08 15° SE 04:59:59 10° E visible
20 May ? 05:21:57 10° SW 05:24:55 77° NW 05:27:51 10° NE visible
21 May ? 04:16:07 20° ESE 04:16:07 20° ESE 04:17:52 10° E visible
22 May ? 04:41:40 47° NW 04:41:40 47° NW 04:44:31 10° NNE visible
